Los Angeles, CA

6:59 PM PDT on July 23, 2017 (GMT -0700)
Los Angeles International

Weather History for KLAX - January, 2013

Change the Weather History Date:

Monday, January 21, 2013

  Actual Average Record
Temperature  
Mean Temperature 63 °F 57 °F  
Max Temperature 77 °F 65 °F 83 °F (1976)
Min Temperature 49 °F 49 °F 37 °F (1966)
Degree Days  
Heating Degree Days 2 8  
Month to date heating degree days 204 179  
Since 1 July heating degree days 563 621  
Cooling Degree Days 0 0  
Month to date cooling degree days 2 0  
Year to date cooling degree days 2 0  
Growing Degree Days 12 (Base 50)    
Moisture  
Dew Point 22 °F    
Average Humidity 30    
Maximum Humidity 51    
Minimum Humidity 9    
Precipitation  
Precipitation 0.00 in 0.08 in 0.73 in (2010)
Month to date precipitation 0.20 1.86  
Year to date precipitation 0.20 1.86  
Since 1 July precipitation 4.48  
Sea Level Pressure  
Sea Level Pressure 30.05 in    
Wind  
Wind Speed 5 mph (NW)    
Max Wind Speed 14 mph    
Max Gust Speed 15 mph    
Visibility 10 miles    
Events      
T = Trace of Precipitation, MM = Missing Value Source: NWS Daily Summary

Daily Weather History Graph

Daily Weather History Graph

Search for Another Location

Airport or City:

Trip Planner

Search our weather history database for the weather conditions in past years. The results will help you decide how hot, cold, wet, or windy it might be!

Date:

Astronomy

Jan. 21, 2013 Rise Set
Actual Time 6:56 AM PST 5:13 PM PST
Civil Twilight 6:29 AM PST 5:40 PM PST
Nautical Twilight 5:59 AM PST 6:11 PM PST
Astronomical Twilight 5:29 AM PST 6:40 PM PST
Moon 12:58 PM PST (1/21) 2:28 AM PST (1/21)
Length of Visible Light 11h 10m
Length of Day
10h 17m
Waxing Gibbous, 76% of the Moon is Illuminated
Jan 21
Waxing Gibbous
Jan 26
Full
Feb 3
Last Quarter
Feb 9
New
Feb 17
First Quarter

Hourly Weather History & Observations

Time (PST) Temp. Dew Point Humidity Pressure Visibility Wind Dir Wind Speed Gust Speed Precip Events Conditions
12:53 AM 55.9 °F 23.0 °F 28% 30.05 in 10.0 mi ESE 4.6 mph - N/A   Clear
1:53 AM 55.0 °F 19.0 °F 24% 30.05 in 10.0 mi East 3.5 mph - N/A   Clear
2:53 AM 54.0 °F 17.1 °F 23% 30.04 in 10.0 mi ENE 8.1 mph - N/A   Clear
3:53 AM 53.1 °F 17.1 °F 24% 30.02 in 10.0 mi ENE 3.5 mph - N/A   Clear
4:53 AM 50.0 °F 21.0 °F 32% 30.02 in 10.0 mi East 4.6 mph - N/A   Clear
5:53 AM 51.1 °F 19.0 °F 28% 30.03 in 10.0 mi Calm Calm - N/A   Clear
6:53 AM 53.6 °F 17.6 °F 24% 30.04 in 10.0 mi Calm Calm - N/A   Scattered Clouds
7:53 AM 55.0 °F 19.0 °F 24% 30.05 in 10.0 mi SE 6.9 mph - N/A   Partly Cloudy
8:53 AM 66.0 °F 18.0 °F 16% 30.07 in 10.0 mi North 4.6 mph - N/A   Partly Cloudy
9:53 AM 70.0 °F 18.0 °F 14% 30.10 in 10.0 mi Variable 4.6 mph - N/A   Clear
10:53 AM 75.0 °F 15.1 °F 10% 30.10 in 10.0 mi NW 5.8 mph - N/A   Clear
11:53 AM 75.9 °F 12.9 °F 9% 30.09 in 10.0 mi WSW 8.1 mph - N/A   Clear
12:53 PM 71.1 °F 30.9 °F 23% 30.06 in 10.0 mi West 13.8 mph - N/A   Clear
1:53 PM 70.0 °F 28.0 °F 21% 30.04 in 10.0 mi West 8.1 mph - N/A   Partly Cloudy
2:53 PM 68.0 °F 32.0 °F 26% 30.04 in 10.0 mi West 10.4 mph - N/A   Partly Cloudy
3:53 PM 70.0 °F 19.9 °F 15% 30.03 in 10.0 mi West 5.8 mph - N/A   Partly Cloudy
4:53 PM 72.0 °F 14.0 °F 11% 30.00 in 10.0 mi NNW 3.5 mph - N/A   Partly Cloudy
5:53 PM 70.0 °F 16.0 °F 13% 30.00 in 10.0 mi Calm Calm - N/A   Partly Cloudy
6:53 PM 64.0 °F 21.0 °F 19% 30.02 in 10.0 mi West 3.5 mph - N/A   Clear
7:53 PM 66.0 °F 21.0 °F 18% 30.04 in 10.0 mi Calm Calm - N/A   Clear
8:53 PM 62.1 °F 25.0 °F 24% 30.06 in 10.0 mi Calm Calm - N/A   Clear
9:53 PM 57.9 °F 39.9 °F 51% 30.08 in 10.0 mi West 3.5 mph - N/A   Clear
10:53 PM 57.0 °F 30.9 °F 37% 30.08 in 10.0 mi Calm Calm - N/A   Clear
11:53 PM 59.0 °F 27.0 °F 29% 30.07 in 10.0 mi NE 4.6 mph - N/A   Clear